Theta_e
330 327 327 333 335 335 335 335 335 336 338 338 337 336 336 335 335 335 335 334 335 335 334 334 334 333 333 332 331 332 332 332 332 331 332 333 333 333 333 333 332 331 331 330 330 329 328 327 326 326 325 324 326 327 329 329 328 326 325 322 319 320 322 321 319 317 313 311 310 309 308 309 310 311 313 316 321 323 325 326 327 328 329 329 330
328 328 331 334 335 336 336 335 335 336 337 338 337 336 336 336 336 336 335 334 334 334 334 334 334 334 334 333 332 332 332 332 332 331 331 332 332 332 332 332 332 332 332 331 330 329 329 329 328 327 326 326 326 327 329 329 329 328 326 325 321 319 321 321 319 318 314 311 311 309 308 309 310 312 313 315 320 323 324 325 326 327 328 329 329
327 332 335 335 335 336 335 334 334 335 336 336 335 335 336 337 336 335 334 335 334 334 334 334 334 334 334 334 334 334 333 333 333 331 331 331 331 332 332 333 332 332 333 332 331 330 330 330 329 328 328 328 327 328 329 329 329 329 327 326 324 319 319 320 319 318 315 312 311 309 307 309 311 312 313 315 319 322 323 324 326 327 328 328 329
331 335 336 336 335 333 332 333 334 335 335 335 334 335 336 336 335 335 334 334 334 334 334 334 334 334 334 334 334 334 334 334 334 333 332 331 331 332 333 333 333 333 333 333 332 331 329 329 329 330 330 330 329 329 330 330 329 330 328 328 326 321 318 319 319 318 315 313 311 309 307 308 311 313 313 315 319 322 322 324 325 326 327 328 329
335 336 337 336 333 331 331 331 333 335 335 334 335 336 336 335 335 335 335 334 334 334 335 334 334 334 334 334 334 334 334 333 333 333 332 332 332 332 333 333 333 333 333 334 333 333 331 329 330 331 331 330 330 330 330 330 330 329 329 328 327 324 319 317 318 317 314 313 311 309 308 309 311 313 313 315 319 321 321 323 325 326 327 328 329
338 337 336 334 332 331 331 332 333 334 334 334 335 335 334 335 335 335 334 334 334 334 334 335 334 334 334 334 334 334 334 334 333 333 332 332 332 333 332 333 333 333 333 333 334 333 333 331 330 331 332 331 330 330 330 330 330 329 329 329 328 327 322 317 317 316 314 312 311 310 309 310 311 313 314 315 318 321 320 322 324 325 326 327 328
339 338 336 334 333 332 332 332 332 332 333 334 333 333 333 334 334 334 334 334 334 334 335 335 335 334 334 333 333 333 333 333 333 333 333 333 334 334 334 333 333 334 333 333 333 333 333 332 331 331 331 331 330 331 331 330 331 330 330 330 329 328 326 320 316 316 315 312 311 311 310 311 312 312 314 315 317 319 321 322 324 324 325 326 328
336 336 337 335 334 333 333 332 332 333 333 332 332 332 333 333 334 334 333 333 332 332 333 334 334 334 333 333 333 333 332 332 332 332 332 332 333 333 333 333 333 333 333 333 333 333 333 332 331 332 332 331 330 330 331 331 331 331 330 330 330 329 327 324 318 314 315 312 311 313 315 314 312 312 313 315 314 317 320 322 323 323 324 326 327
328 332 336 335 334 334 334 334 334 334 332 331 332 333 334 335 335 334 333 332 332 331 331 331 332 333 332 332 333 333 332 332 332 332 332 331 332 331 330 330 331 332 332 333 334 333 332 332 331 332 332 331 331 330 331 331 331 331 331 330 330 329 328 327 321 315 314 313 312 315 319 318 315 313 312 314 314 315 319 322 324 323 324 326 327
327 331 335 335 336 335 334 334 333 332 330 330 332 334 335 336 335 334 333 333 332 332 332 331 332 332 331 331 332 332 332 331 331 331 332 331 331 331 330 330 330 330 330 332 332 333 332 331 332 332 333 332 331 331 331 331 331 331 331 331 330 329 328 328 325 318 313 314 314 315 320 320 318 316 314 314 315 314 317 321 323 323 324 326 327
332 335 335 335 336 336 334 332 331 330 331 332 333 334 335 335 334 333 333 333 333 333 333 333 333 332 332 332 331 331 330 330 331 331 331 331 331 331 331 331 330 329 329 330 330 331 331 331 331 332 333 333 332 331 331 331 331 331 331 331 331 330 329 328 327 322 314 313 314 315 320 321 318 317 316 315 316 314 315 318 322 324 323 324 327
335 336 334 334 336 337 335 334 334 334 334 334 334 334 335 335 334 334 334 334 334 334 334 334 333 333 333 332 331 330 330 330 331 331 331 332 331 330 330 331 331 330 330 330 330 329 329 329 330 331 332 332 332 331 331 330 330 331 331 331 331 331 330 328 327 326 318 313 314 315 319 320 318 318 318 317 317 316 316 317 319 323 323 322 325
331 329 330 334 336 336 336 335 336 335 335 335 335 335 335 335 335 335 334 334 333 334 335 334 334 333 332 331 330 330 330 330 331 332 332 332 331 330 330 331 331 331 331 331 331 330 329 329 330 331 331 331 331 331 331 330 330 331 331 331 331 331 330 329 328 327 323 316 313 315 318 320 319 319 319 318 318 317 318 318 316 320 323 321 322
328 326 330 335 335 334 335 336 336 335 335 335 335 335 336 336 336 335 334 334 333 334 335 335 334 333 332 331 330 328 329 331 332 332 331 330 330 331 331 331 331 331 331 331 331 331 331 331 330 330 330 330 330 331 331 331 330 330 331 331 331 331 330 330 329 328 327 321 314 314 317 319 320 319 318 317 318 317 318 320 317 316 321 321 321
329 330 330 332 333 334 335 336 336 334 333 335 336 335 335 335 335 335 335 334 334 334 335 335 334 334 333 332 331 328 329 332 331 329 331 331 331 332 332 332 332 332 332 332 331 331 331 332 332 331 331 331 331 330 330 330 330 330 330 330 330 330 330 330 330 329 328 325 317 313 316 320 320 320 319 318 318 317 317 320 318 316 319 321 320
329 330 330 333 334 335 335 334 335 334 334 335 335 335 335 335 335 335 334 334 333 332 332 333 334 334 334 334 333 332 332 332 329 327 330 331 330 331 332 332 332 332 333 333 333 332 332 332 332 332 331 331 331 331 331 330 331 331 330 330 330 330 331 330 330 330 329 327 320 314 316 320 321 320 319 318 318 317 317 317 317 317 319 320 320
328 327 329 333 333 333 334 334 334 335 336 335 335 335 335 334 334 333 333 332 332 331 330 331 333 334 334 334 334 333 333 333 331 329 328 328 328 329 331 331 331 332 333 333 333 333 332 332 332 331 331 331 331 331 331 331 331 330 330 330 330 330 331 330 331 330 330 329 323 316 316 319 321 321 319 319 318 317 317 316 315 315 316 319 320
328 328 329 331 332 333 334 334 335 335 335 334 333 332 332 332 332 332 332 331 331 331 330 330 330 332 333 334 334 334 334 333 333 332 328 327 328 329 330 330 330 330 331 332 333 333 332 332 331 331 330 330 330 330 331 331 331 331 331 330 331 330 330 330 330 330 329 330 326 319 318 321 322 322 319 318 319 318 317 316 315 313 313 317 320
330 330 330 330 332 334 335 334 335 335 334 332 331 329 330 331 331 330 330 329 329 330 330 329 329 328 330 331 331 332 332 332 332 333 331 330 329 329 329 329 330 330 330 331 331 331 331 332 331 331 330 330 330 330 329 330 331 331 331 330 331 330 331 330 330 330 329 330 329 322 320 324 325 324 321 318 318 318 316 317 317 315 314 315 319
329 330 331 333 334 334 335 335 334 334 333 332 329 327 328 330 329 329 329 329 329 329 329 328 328 327 326 326 326 327 328 330 331 332 332 332 330 329 329 329 328 328 329 329 330 330 330 331 331 331 331 330 330 330 329 329 330 330 330 330 330 330 331 330 330 331 330 330 330 325 321 324 327 326 324 320 318 318 316 316 319 318 316 314 317
333 334 335 336 335 335 335 334 332 331 330 330 328 326 326 327 327 326 326 327 328 328 327 327 326 326 324 324 325 326 327 328 330 330 331 331 330 329 328 328 327 325 326 328 329 330 330 331 330 330 331 331 330 330 329 329 329 330 330 330 331 330 330 331 330 331 331 330 330 326 322 323 327 327 327 324 319 319 317 315 319 320 318 316 316
335 335 335 335 334 334 333 332 329 328 326 326 326 323 323 324 324 323 324 325 325 326 326 326 325 325 325 326 327 328 327 327 328 329 329 330 330 329 329 329 328 326 325 327 328 329 329 329 329 330 330 330 330 330 330 329 330 330 330 330 331 331 331 331 331 330 331 330 330 328 322 321 325 327 328 327 322 319 318 316 317 319 320 318 318
334 334 332 331 331 331 330 328 326 325 323 321 320 319 319 321 322 321 322 322 323 323 324 324 325 325 326 328 328 328 328 328 329 329 329 329 329 328 328 329 329 328 327 327 327 328 328 328 329 330 330 330 330 330 329 329 329 329 330 330 330 331 331 331 331 330 330 330 331 330 324 320 324 327 328 329 326 322 319 317 317 319 321 320 319
331 330 329 327 326 327 326 324 322 320 318 317 317 316 316 318 319 319 320 320 320 321 322 323 324 325 326 326 327 327 327 328 328 328 328 328 328 328 328 328 328 328 328 327 327 326 327 328 328 330 330 330 330 330 330 330 330 330 330 330 330 330 330 331 331 330 330 330 330 331 327 321 321 326 327 328 329 325 321 318 317 320 322 321 320
328 327 325 324 322 322 322 319 317 316 316 315 316 315 315 316 316 316 317 317 317 319 320 322 322 323 323 323 323 324 325 326 327 327 327 327 327 327 327 327 327 328 328 327 326 326 326 327 328 329 330 330 329 329 329 329 329 329 330 331 331 330 330 330 331 330 330 330 330 331 330 325 321 323 326 327 329 328 324 319 318 320 322 322 321
326 325 324 321 318 317 317 315 315 315 315 315 314 314 313 314 314 314 314 314 315 316 317 318 318 319 320 319 319 320 322 324 325 325 325 325 326 325 326 326 326 327 327 326 326 326 326 327 327 328 329 329 329 329 329 328 326 325 326 328 330 330 330 330 330 330 330 330 330 330 330 329 323 321 324 327 328 329 327 323 319 319 321 321 322
325 325 322 319 316 315 315 314 314 314 314 314 313 313 313 313 313 313 313 314 314 315 315 315 316 317 318 318 318 319 320 321 323 324 324 323 324 324 325 325 325 326 326 326 325 325 326 326 326 327 327 328 329 329 328 328 327 326 326 327 328 328 329 330 330 330 330 330 330 329 329 330 328 323 321 324 327 329 329 327 321 319 320 321 321
325 324 320 317 315 314 314 313 313 313 313 313 314 313 313 313 313 313 314 314 314 314 315 315 316 317 317 318 318 319 319 320 321 322 323 322 323 323 323 324 324 325 325 325 325 325 325 326 326 326 326 327 327 327 327 328 328 328 329 329 329 329 329 329 330 330 330 330 329 329 329 330 329 326 321 320 324 328 329 329 325 320 319 320 321
325 322 318 315 314 313 313 313 313 313 313 314 314 314 314 313 313 313 314 314 314 314 315 315 316 317 317 318 318 318 319 319 320 320 321 321 321 321 322 322 322 323 323 323 324 324 324 324 325 325 325 326 326 327 327 328 328 328 329 329 329 329 329 329 330 330 330 330 329 329 329 329 329 328 325 320 320 326 329 329 327 322 319 320 320
321 318 315 313 313 313 313 313 314 314 314 314 314 313 313 313 312 313 315 315 315 316 316 317 317 317 317 317 317 317 317 317 319 319 319 320 320 320 320 320 320 321 321 322 322 322 323 324 324 324 324 325 325 326 327 327 329 328 328 328 328 328 328 329 329 329 329 329 330 329 328 329 329 329 328 323 319 323 327 329 328 324 321 320 320
316 315 314 314 313 313 314 315 315 314 314 314 313 313 313 314 314 315 316 316 317 317 318 318 318 317 317 316 316 316 316 316 317 318 318 319 319 320 320 320 320 320 320 320 320 321 322 322 322 323 324 324 324 325 325 326 327 327 327 328 327 328 328 328 328 329 328 328 329 330 328 328 329 328 329 328 322 320 324 327 329 327 323 321 320
314 313 313 313 313 313 314 315 314 314 314 313 313 314 314 314 315 315 316 317 316 317 317 317 316 316 316 315 315 315 315 315 314 315 315 316 316 317 318 319 319 319 318 318 318 318 319 320 320 322 322 322 323 324 324 325 325 325 326 326 327 327 327 327 328 328 328 328 328 329 329 329 329 328 328 329 327 322 321 324 327 327 325 324 321
313 313 313 314 314 314 314 314 314 313 313 313 313 313 313 314 314 314 315 315 314 315 315 315 314 314 314 313 313 313 312 312 312 312 313 313 313 314 315 315 316 316 315 315 315 315 317 318 318 319 319 319 320 323 323 324 325 325 325 326 326 327 327 327 328 328 328 328 328 328 328 328 329 329 328 328 329 326 322 321 324 326 326 325 323
313 313 314 314 314 314 314 314 314 313 313 313 313 313 312 313 313 313 313 313 313 312 312 312 312 311 311 310 311 310 310 310 310 310 311 311 311 312 312 312 313 313 313 314 314 313 314 316 316 316 316 316 317 320 321 322 323 324 324 325 326 326 327 327 327 328 328 328 328 327 327 328 328 329 328 328 328 328 325 321 322 325 326 325 323
314 314 314 314 314 314 314 314 313 313 313 312 312 312 312 312 312 312 312 312 311 311 310 310 310 310 310 310 309 309 309 309 309 309 309 309 309 309 310 310 310 311 311 312 312 311 311 313 313 313 314 315 315 316 318 319 321 323 324 324 325 325 326 326 327 328 328 327 327 326 326 327 328 328 328 328 328 328 327 324 321 323 325 326 324
314 314 314 314 314 314 313 313 313 313 312 312 311 311 311 311 311 311 311 311 310 310 310 309 309 309 310 309 309 309 308 308 309 309 308 308 308 308 308 309 309 309 310 310 309 309 308 309 311 311 311 313 313 314 315 316 317 319 320 322 323 324 325 326 326 326 327 326 326 327 327 326 327 329 328 328 327 327 327 326 323 322 324 326 325
314 313 313 313 314 313 313 313 313 312 311 311 311 310 310 311 311 311 309 309 309 309 309 308 308 309 309 309 308 307 306 307 307 307 307 307 307 307 308 309 309 309 309 309 308 308 307 307 308 309 310 310 312 312 312 313 314 315 316 317 319 320 322 324 325 325 325 326 326 326 326 326 326 327 328 327 327 327 327 327 325 322 322 324 326
313 313 313 313 313 313 313 312 312 311 310 309 309 309 309 310 310 309 308 307 308 308 307 307 307 308 308 307 307 305 304 305 305 305 306 306 306 307 308 309 309 309 309 309 308 307 307 306 306 307 308 308 309 310 310 310 310 312 313 314 315 315 317 319 322 323 324 324 325 325 325 326 326 326 327 327 327 327 326 327 326 323 321 322 325
313 313 313 312 312 312 312 311 310 309 308 308 308 308 309 309 309 308 307 307 308 307 306 305 305 305 306 305 304 303 303 303 303 304 305 305 306 307 309 309 309 309 309 308 308 307 307 306 306 306 306 306 306 307 308 308 308 309 310 311 314 315 315 315 317 319 320 321 322 324 324 325 325 326 326 326 327 327 326 326 327 325 321 320 323
313 312 312 312 311 311 310 309 309 308 307 308 308 308 309 309 308 308 307 307 307 306 304 304 304 303 303 302 302 301 302 302 302 303 304 305 306 307 308 308 308 308 308 308 307 307 306 306 306 305 305 305 305 305 306 307 307 308 307 307 309 312 313 314 315 315 316 317 318 321 324 325 326 326 326 326 326 326 326 326 326 326 322 320 322
312 312 311 310 310 309 309 308 307 307 307 307 308 308 308 308 308 308 307 307 305 303 302 302 302 301 301 301 300 301 301 301 301 302 303 304 305 306 307 307 307 308 307 306 306 306 305 305 305 305 305 305 304 304 304 304 304 305 306 305 306 308 310 312 314 314 314 315 316 317 321 324 325 325 325 325 325 326 326 326 325 325 324 321 320
311 311 309 309 308 308 308 307 306 307 307 307 307 307 307 307 307 306 305 304 302 301 300 300 299 299 300 300 300 300 300 301 301 301 302 303 304 304 305 305 306 306 305 304 304 304 304 304 305 305 305 304 304 303 303 303 303 303 304 304 305 306 307 309 313 314 313 314 315 316 318 321 323 324 324 324 325 325 326 326 325 325 324 323 321
310 309 308 308 307 307 306 306 306 306 306 306 307 306 306 305 304 302 301 301 300 299 298 298 298 298 299 299 299 299 299 300 300 300 301 301 302 302 303 303 304 304 303 303 303 303 303 303 304 304 304 304 303 303 303 303 302 303 303 304 304 305 306 307 310 313 313 312 313 315 317 319 321 322 323 323 324 325 326 326 326 325 325 324 322
308 307 307 306 305 305 305 304 304 304 305 306 306 305 305 303 301 300 300 300 299 297 296 296 297 297 298 299 299 299 299 299 299 300 300 300 301 301 301 301 302 302 302 302 302 302 301 302 302 303 303 303 302 303 303 302 302 302 303 304 304 305 306 306 307 310 311 311 311 314 316 317 319 321 322 324 324 324 324 325 326 325 325 325 323
307 307 305 304 303 303 303 303 303 304 305 305 305 305 304 301 300 299 298 298 298 297 296 296 297 297 298 298 299 299 299 299 299 299 299 300 300 300 300 300 300 300 301 301 301 301 301 301 301 301 301 302 302 302 302 302 302 303 303 304 305 305 306 307 307 308 310 310 312 313 315 317 319 320 322 323 323 324 324 324 325 325 325 325 325
306 304 302 301 301 301 301 301 301 303 305 305 305 305 302 300 299 299 298 298 297 296 296 296 296 297 298 298 298 298 299 299 299 299 299 299 299 300 300 300 300 300 300 300 300 300 300 300 300 300 301 301 302 302 302 303 303 302 303 303 304 305 306 307 308 309 310 311 312 313 314 317 319 320 321 323 323 324 324 324 324 324 324 325 325
305 302 300 300 299 299 299 299 300 303 305 305 306 304 301 300 300 301 301 299 298 297 296 296 297 297 297 298 298 298 299 299 299 299 299 299 299 299 300 300 300 300 299 299 300 300 300 300 300 300 301 301 301 302 302 302 302 302 303 303 304 305 306 308 309 310 311 312 312 312 313 316 319 320 321 322 323 323 324 323 323 323 323 323 324
303 300 298 298 297 297 297 297 299 302 304 305 305 303 301 301 301 302 301 301 299 297 296 296 297 297 297 298 298 298 298 299 299 299 299 299 299 299 299 299 299 300 299 299 299 299 300 300 300 300 301 301 301 302 302 302 302 302 303 304 305 306 306 307 308 310 311 312 312 311 312 315 318 319 320 322 322 323 322 322 322 322 322 322 322
300 298 297 297 296 296 296 296 298 300 303 304 304 302 302 302 301 301 301 301 299 298 296 296 297 297 297 298 298 297 298 298 298 299 299 299 299 298 299 299 299 300 299 299 299 299 299 300 300 301 301 301 302 302 301 301 302 302 302 303 304 304 305 305 306 308 311 312 311 311 312 315 317 318 319 320 321 322 322 321 321 321 322 322 322
298 297 296 296 296 296 295 296 296 298 300 302 302 301 301 301 299 298 299 298 298 296 296 296 297 297 297 298 298 298 298 298 298 298 299 299 299 299 298 298 299 299 299 299 299 299 299 300 300 301 302 302 302 301 301 301 301 301 301 301 301 302 303 303 303 306 310 310 310 310 313 315 316 316 317 318 319 319 320 320 320 320 320 320 321
296 296 296 296 295 295 295 295 295 296 297 298 298 299 299 299 298 296 296 295 295 295 296 296 297 297 297 298 298 297 297 298 298 298 298 298 299 299 298 298 298 299 298 298 299 299 299 299 300 301 301 302 301 301 301 301 300 300 300 300 300 301 301 302 303 304 307 309 309 310 311 313 314 314 315 316 316 315 316 317 317 318 318 318 319
Wind_Speed
4 5 4 1 2 3 3 4 4 4 3 3 3 4 5 6 7 8 9 9 9 9 9 10 8 11 14 14 12 12 13 13 13 14 17 18 19 19 19 19 20 20 19 17 17 17 17 16 16 17 19 18 18 18 17 16 13 13 13 14 13 10 8 7 6 5 4 4 4 6 7 7 7 8 8 7 8 10 10 9 8 8 8 9 9
6 6 5 3 4 4 5 4 5 5 4 4 4 4 6 7 8 9 10 10 10 11 11 13 13 14 15 14 13 13 12 12 14 17 18 19 21 21 20 20 20 20 19 18 17 17 17 17 17 17 19 19 18 18 18 17 15 14 13 14 13 9 7 7 6 6 5 5 5 6 7 8 8 9 9 8 9 11 11 10 8 9 9 9 10
7 6 5 4 4 5 5 4 5 4 4 5 5 5 7 8 9 9 10 10 11 11 11 13 14 15 16 14 14 15 15 15 15 16 18 19 21 22 20 20 20 20 19 19 18 18 18 18 18 17 19 20 20 18 19 19 17 16 14 14 14 10 7 7 7 6 6 6 6 7 8 8 9 10 9 8 9 11 11 10 9 9 9 10 10
7 6 5 4 5 5 5 5 4 4 5 5 5 6 8 9 9 9 9 10 10 10 10 11 11 12 14 14 14 16 18 18 16 16 17 19 19 19 19 19 19 18 17 18 19 19 20 20 19 17 18 20 20 19 19 20 19 18 16 15 14 11 8 8 8 7 7 7 7 7 8 9 10 11 11 9 9 11 12 12 10 10 10 10 10
6 5 5 6 6 5 5 5 4 5 5 5 4 7 8 9 9 8 8 9 9 9 10 9 9 9 10 11 13 15 18 18 17 17 17 18 18 18 19 19 19 18 16 16 17 19 20 20 19 18 18 20 20 19 19 20 20 20 17 15 15 13 10 8 8 8 7 7 8 8 9 10 11 12 12 10 10 11 12 13 12 11 12 12 11
5 5 6 6 5 5 5 6 6 5 5 4 4 5 6 6 6 6 7 8 8 8 9 9 9 9 10 10 11 14 16 16 16 16 17 17 18 18 19 20 20 19 19 18 17 18 19 19 19 19 19 20 20 19 20 20 20 21 19 16 15 14 11 9 8 8 8 8 8 9 9 10 11 13 13 11 11 11 11 13 14 13 13 13 12
6 6 6 5 6 6 5 6 6 5 4 3 3 4 5 5 5 6 7 8 8 8 8 9 10 10 11 12 11 12 14 15 14 15 16 17 19 19 21 21 21 21 21 20 19 19 19 18 18 19 19 20 20 19 20 19 18 19 20 17 15 16 13 10 8 9 8 9 9 9 10 11 12 13 13 12 11 11 11 12 13 13 14 14 14
7 6 6 6 7 6 5 5 5 4 2 2 3 5 5 5 6 7 9 9 9 9 9 9 11 11 11 12 12 11 11 11 11 12 14 16 18 19 20 20 20 20 20 19 19 19 19 17 16 17 19 20 20 20 19 19 17 17 20 19 16 16 15 12 9 9 9 10 10 10 10 11 13 14 14 13 12 12 11 11 11 10 12 15 15
7 6 5 6 7 6 5 4 2 3 2 3 4 5 5 6 7 9 10 10 10 10 10 10 11 11 11 11 11 12 12 11 10 11 11 12 13 15 16 16 17 17 18 18 19 19 19 17 15 15 17 19 20 20 19 19 18 16 17 19 19 17 17 15 10 9 10 11 11 10 10 11 13 14 15 15 13 13 13 12 11 10 11 14 15
5 5 5 5 6 5 5 2 1 2 3 5 5 5 5 7 8 9 10 10 11 11 11 11 11 11 12 11 11 11 12 12 11 10 10 10 10 11 13 14 15 15 15 17 17 17 17 16 15 15 17 18 19 19 19 19 19 18 17 18 20 19 17 17 13 10 11 12 12 11 11 11 13 15 16 16 15 15 14 14 14 12 13 16 17
6 5 4 4 4 3 3 2 3 4 5 5 4 5 5 7 8 9 9 10 10 10 11 12 13 13 12 12 11 11 11 10 9 8 8 8 8 10 12 14 14 14 14 15 15 15 15 15 16 16 17 17 17 18 20 20 19 19 18 17 18 20 19 18 16 12 11 13 14 12 12 13 14 15 16 17 17 16 16 16 16 14 15 17 19
7 4 3 4 4 3 2 2 2 3 3 3 4 4 6 8 9 9 9 9 9 9 11 13 14 14 13 13 12 12 11 9 8 8 8 8 9 12 14 14 13 14 14 14 15 15 15 16 16 16 16 16 16 17 19 21 20 19 19 17 17 20 20 19 17 14 11 13 15 14 13 14 14 14 15 16 17 17 17 18 19 17 16 18 20
6 4 3 4 5 3 3 2 2 2 2 3 4 5 6 8 8 9 9 10 9 9 10 12 14 15 15 15 13 11 10 8 5 4 6 10 13 14 13 13 13 14 15 15 16 16 16 16 16 16 16 16 16 17 17 19 20 19 19 19 18 19 20 19 17 14 12 12 15 15 14 15 15 15 15 16 17 18 18 19 21 20 18 18 21
7 6 4 4 5 4 4 3 2 2 3 3 4 5 6 7 8 9 9 10 10 9 9 11 13 15 17 17 16 12 9 5 3 6 11 13 12 11 12 13 14 14 15 16 16 17 17 17 17 16 16 16 16 17 17 17 18 19 19 20 18 19 20 19 18 16 14 14 15 16 16 15 16 16 16 16 17 18 18 18 21 22 20 19 21
7 5 4 5 5 4 3 1 2 3 3 4 5 5 6 7 7 9 9 8 9 8 7 9 11 13 15 16 18 16 10 6 9 14 13 9 8 11 13 13 13 13 14 16 17 17 17 17 17 18 18 18 18 18 18 17 17 18 19 20 20 20 20 19 19 19 18 16 15 17 17 16 17 18 17 17 18 19 19 18 20 21 21 20 21
6 5 5 5 5 3 2 3 4 3 4 4 6 6 7 7 6 8 10 9 9 7 6 7 8 10 12 14 15 13 11 14 20 19 10 7 12 13 11 12 13 13 14 15 16 17 18 18 18 19 19 19 20 20 20 19 19 19 19 20 21 22 22 21 20 20 21 19 16 17 18 18 18 18 18 17 18 19 20 19 19 21 22 21 21
6 6 5 6 5 3 3 5 5 4 4 5 6 7 6 7 7 8 10 11 10 10 8 8 7 7 8 11 10 9 13 19 23 19 13 15 18 15 13 15 15 14 15 15 16 17 18 19 19 19 19 19 20 21 21 21 21 20 21 21 22 23 23 23 22 21 21 20 18 18 18 19 19 19 19 18 18 19 20 20 20 20 21 21 21
8 8 8 8 6 4 5 7 6 6 6 5 6 7 7 8 9 10 11 11 11 12 11 10 9 7 5 6 7 10 15 19 19 20 21 21 19 18 19 18 17 17 17 16 16 17 18 18 18 19 19 19 19 20 21 22 22 22 22 22 22 23 23 24 24 23 22 21 21 19 18 19 20 19 19 19 19 19 20 21 21 21 21 21 21
9 9 8 6 6 7 8 9 8 8 9 8 8 9 8 9 11 11 11 12 12 12 13 13 12 10 8 8 9 10 12 14 16 20 24 24 22 20 20 20 20 20 19 17 17 17 18 19 19 19 19 19 19 20 21 22 23 23 22 22 22 22 23 24 24 24 23 23 23 21 20 21 21 19 18 20 20 20 20 21 21 22 22 22 22
7 7 7 6 8 11 11 11 11 12 12 12 12 11 11 12 13 13 12 12 12 13 13 14 15 15 14 13 12 11 11 11 12 14 19 24 26 24 22 23 22 21 20 20 19 18 18 19 20 20 20 19 20 21 21 21 22 23 23 23 23 23 23 24 24 25 24 24 24 22 21 23 24 22 20 20 21 21 21 21 21 22 22 23 22
6 7 9 10 12 14 14 14 15 15 15 15 15 14 14 14 13 13 12 12 12 13 13 13 14 15 15 14 13 13 12 12 11 12 15 20 24 26 26 27 26 23 21 20 20 19 18 19 20 21 21 22 21 21 22 21 21 22 22 23 24 24 24 24 25 26 26 25 25 23 23 25 27 26 23 22 21 21 21 21 21 21 22 23 22
9 10 12 14 15 16 16 17 17 16 15 15 15 15 14 13 12 12 11 11 12 12 12 12 12 12 12 13 14 15 15 14 14 15 16 18 21 25 26 28 29 28 24 22 21 21 20 21 21 21 22 23 23 23 23 22 22 22 22 22 24 26 26 25 25 27 28 27 25 24 24 26 29 28 27 26 23 22 22 22 23 21 21 22 22
11 12 13 15 16 18 18 17 16 15 13 12 11 11 11 11 11 11 12 12 13 13 12 12 12 12 12 13 13 14 14 15 16 16 17 19 21 24 25 26 27 28 26 24 23 23 23 21 18 18 21 23 25 25 24 22 21 21 21 21 22 25 27 27 26 26 28 27 26 27 25 27 30 30 29 29 27 24 22 23 24 22 22 22 21
13 14 14 14 14 15 15 14 12 11 10 9 8 8 8 10 11 12 13 13 14 13 13 13 14 14 14 14 15 15 14 14 14 15 16 18 20 22 24 25 26 27 26 26 25 24 23 21 17 17 20 23 24 24 25 25 22 21 22 21 20 22 24 26 26 25 27 27 28 30 27 27 32 33 31 30 30 28 24 24 24 23 23 22 21
13 13 11 8 8 10 11 9 7 6 6 6 7 7 7 8 10 11 12 13 13 13 13 14 15 16 16 17 17 16 16 15 15 15 16 17 19 21 23 24 25 27 27 27 27 26 24 21 18 16 19 22 22 23 24 24 22 21 22 22 21 22 23 25 26 25 25 26 28 31 30 27 32 34 33 31 31 31 28 25 25 26 25 24 23
12 9 6 4 5 6 6 4 4 4 4 4 5 5 5 6 7 9 10 10 11 12 13 14 15 16 17 18 18 18 17 15 14 14 14 14 16 19 22 23 24 25 26 27 28 27 26 24 21 19 20 22 21 21 20 19 18 18 19 21 21 22 23 25 26 25 25 26 27 31 31 28 30 34 33 31 32 35 32 28 27 27 28 27 26
10 6 4 5 4 4 4 3 2 2 2 3 4 4 4 5 7 8 9 10 11 11 12 12 13 13 14 16 17 16 15 14 12 12 12 11 13 15 18 21 23 24 25 26 27 26 25 25 24 20 20 21 20 20 21 20 20 19 18 20 21 21 21 23 25 26 26 26 27 29 31 30 30 33 34 33 33 36 36 32 28 28 30 30 29
10 6 6 6 4 4 3 2 1 2 2 2 3 4 4 5 6 7 7 7 8 8 8 9 10 11 11 12 12 12 12 11 11 12 12 11 12 14 16 18 21 24 25 25 26 26 24 25 24 22 20 21 21 22 24 24 22 21 21 22 21 21 20 21 24 26 26 26 27 29 31 32 32 32 34 36 35 37 38 36 32 30 30 32 32
10 8 8 7 5 4 3 2 2 2 2 1 1 3 3 3 4 4 5 5 6 7 7 8 9 11 11 11 12 13 13 13 11 11 12 13 14 16 18 18 19 21 22 23 24 26 26 26 25 25 23 21 21 22 23 23 21 21 22 23 23 23 22 22 24 25 25 26 28 30 31 31 31 30 33 38 39 38 40 39 36 32 31 33 34
10 10 8 5 4 3 2 2 2 2 2 1 0 1 2 3 4 4 5 6 6 7 8 9 10 12 13 12 13 14 14 14 14 13 12 13 15 16 18 18 18 19 19 20 23 24 26 27 26 26 26 23 21 21 20 21 22 21 21 23 24 24 24 25 26 25 25 26 27 29 29 29 30 30 32 37 40 41 41 41 40 35 32 34 36
11 10 8 5 4 3 4 4 3 2 2 2 2 3 3 4 4 5 5 6 7 7 8 10 11 13 13 13 14 15 16 15 14 14 14 14 15 16 17 17 18 18 17 17 20 22 22 24 26 26 26 26 24 23 22 21 21 21 22 23 23 22 23 25 26 26 26 26 27 28 29 29 30 30 32 35 39 43 44 43 42 40 36 35 37
11 9 7 5 4 5 5 4 2 2 3 4 4 4 4 4 4 5 6 6 7 8 9 10 11 12 13 14 15 16 16 16 16 15 15 15 16 16 16 16 16 17 17 17 19 21 20 21 24 26 26 26 25 23 22 22 21 20 20 22 21 21 22 24 25 26 26 27 27 28 29 30 31 32 32 34 37 41 46 46 44 43 41 39 39
8 6 5 6 6 5 4 3 4 5 6 5 5 6 5 5 5 5 5 6 8 9 10 10 12 13 14 16 16 17 17 18 19 18 18 19 19 18 18 17 16 17 18 19 22 24 23 21 22 23 23 23 21 18 19 20 19 19 18 18 18 19 20 22 24 25 25 26 26 27 28 30 33 34 33 34 36 38 44 49 48 46 45 43 41
8 9 9 9 6 4 4 6 6 6 6 6 5 5 5 6 6 6 7 8 10 11 12 12 13 14 16 17 18 19 19 19 20 21 21 22 23 23 22 22 20 19 19 20 22 25 25 23 22 22 21 20 18 16 18 20 18 18 17 16 17 17 18 20 23 26 26 25 26 27 28 29 32 34 33 32 35 36 40 47 51 50 48 47 44
12 12 10 7 5 5 7 7 6 6 5 5 4 4 5 5 7 8 10 11 12 13 13 13 14 14 16 17 18 20 21 20 20 22 23 24 25 25 25 24 23 21 20 20 21 25 26 25 25 25 23 21 18 16 18 20 18 19 19 17 18 18 17 19 21 24 25 25 25 25 26 26 29 33 34 32 31 32 36 44 51 53 52 50 48
15 12 9 6 5 7 8 7 6 5 4 4 4 4 5 6 7 9 11 12 11 11 11 11 12 12 14 15 17 20 22 20 20 22 24 24 25 24 24 23 23 22 21 21 22 24 26 27 28 27 24 22 19 16 19 21 20 22 23 21 19 19 20 21 23 25 25 25 24 24 24 24 26 29 31 31 30 31 34 40 48 54 55 54 51
15 10 8 6 8 8 8 6 5 4 4 4 4 5 6 7 7 9 10 10 9 8 10 10 9 9 11 13 17 21 23 22 22 23 24 23 23 21 21 21 21 21 20 21 23 24 25 28 28 27 25 22 19 18 21 24 23 24 25 24 23 24 25 25 24 24 24 24 25 25 24 23 24 26 28 29 29 30 32 36 43 52 57 56 54
12 9 6 7 9 9 7 6 4 4 4 4 5 6 7 7 7 8 9 8 8 9 11 11 10 9 10 13 17 20 21 22 22 23 22 21 19 18 19 19 19 20 20 21 24 25 26 27 28 28 27 25 23 22 24 27 28 27 27 27 26 26 27 28 27 26 25 25 26 26 25 25 24 24 26 28 28 27 30 35 40 49 57 58 55
8 6 5 8 10 9 7 6 5 5 4 5 6 7 7 8 8 8 8 8 9 11 12 12 12 12 12 14 17 20 21 21 21 21 20 18 16 15 16 17 17 19 20 21 23 25 26 27 27 28 28 28 27 26 27 28 28 28 29 30 29 26 25 27 28 29 28 27 27 25 26 26 25 23 25 27 28 28 29 33 39 46 53 58 57
8 5 6 9 10 9 7 6 5 5 5 5 7 8 9 8 8 8 8 9 11 13 14 15 15 15 16 18 20 22 22 21 20 18 17 16 15 14 15 15 16 18 20 21 22 23 24 25 27 28 28 29 29 30 31 31 30 29 30 31 31 29 27 26 26 26 27 27 27 26 24 25 24 22 23 26 28 29 29 30 35 42 48 55 58
9 6 8 10 10 9 7 6 6 5 5 7 9 10 9 8 8 9 11 12 13 15 17 18 18 18 20 22 24 25 25 24 21 19 16 14 12 13 14 15 15 15 18 22 23 23 24 24 25 26 27 28 29 32 33 33 33 33 32 33 33 32 32 30 26 24 23 23 24 25 24 23 23 21 20 23 26 28 29 30 32 38 43 51 57
9 6 9 11 9 8 7 6 6 7 7 9 10 10 9 9 10 11 12 14 17 18 19 20 21 22 23 25 27 28 29 28 27 25 22 17 14 13 13 14 15 14 18 22 23 24 24 24 24 24 25 26 27 28 30 32 34 34 34 35 35 35 35 33 28 22 19 20 22 23 24 24 25 24 21 22 23 23 28 32 32 34 39 46 53
9 8 11 11 9 9 8 8 8 8 10 11 11 11 11 12 13 14 16 18 21 22 22 23 24 25 25 27 29 30 32 33 32 31 30 28 26 22 17 15 15 16 20 23 24 25 25 24 23 22 22 24 25 26 28 30 33 34 34 34 34 34 34 33 31 26 20 21 24 25 23 21 23 26 25 23 22 20 23 28 31 33 35 40 48
10 9 11 11 10 10 9 9 9 10 12 13 13 12 13 14 16 18 20 21 23 23 24 25 25 25 26 28 30 31 32 33 34 34 34 33 33 33 29 25 21 20 21 22 23 24 25 24 23 22 21 22 24 26 28 30 31 33 33 31 30 30 29 30 33 32 26 25 26 27 23 18 19 24 26 23 21 20 18 21 26 30 34 38 43
12 10 11 12 12 12 11 11 11 12 14 15 14 13 14 16 19 21 22 23 23 24 25 26 26 26 27 28 30 31 31 32 33 33 34 34 32 31 32 34 33 32 31 27 23 23 23 23 23 23 23 23 25 27 28 29 31 31 31 30 28 26 27 28 31 33 30 26 24 26 25 18 15 18 23 22 21 20 19 19 22 26 31 34 38
13 12 13 14 14 14 13 13 13 14 15 15 14 13 14 17 20 22 23 23 23 24 25 26 27 28 28 28 29 30 30 31 32 31 32 33 32 30 30 33 36 37 39 37 33 28 24 22 23 23 22 22 23 25 26 26 26 25 26 27 26 25 26 27 28 29 28 23 19 22 24 20 14 15 18 20 21 20 20 21 24 26 28 32 34
14 15 15 16 16 16 15 14 14 16 16 15 13 12 15 18 19 20 20 21 22 22 23 25 26 27 28 28 28 28 28 30 31 30 30 32 33 31 30 32 34 36 38 40 39 36 30 26 25 24 22 21 20 21 21 21 20 20 21 22 23 23 24 25 24 23 22 18 14 16 20 19 15 15 17 18 19 19 19 21 23 25 28 32 35
16 17 17 17 17 17 16 15 14 16 17 15 12 12 15 18 18 17 17 17 19 20 20 22 23 25 26 27 28 27 26 27 29 30 28 29 32 33 31 31 32 33 36 39 40 39 36 32 30 27 23 21 19 18 17 17 17 19 20 20 20 20 21 23 22 19 17 13 10 12 17 17 14 15 18 19 19 19 20 21 22 24 26 29 32
18 18 17 17 17 16 16 16 15 15 16 14 11 11 13 14 15 16 16 16 16 17 18 20 22 24 25 25 26 27 26 25 27 29 29 28 30 33 32 31 30 30 33 37 40 40 39 36 34 32 28 25 22 20 18 17 18 20 21 21 21 21 22 23 23 21 16 11 9 13 17 16 13 13 16 19 18 18 19 20 22 23 24 25 27
19 18 17 17 17 16 16 16 16 15 15 13 10 9 10 11 13 15 16 15 15 16 18 20 21 22 23 24 25 26 26 26 25 27 28 27 28 31 31 30 30 29 31 35 39 42 41 38 35 34 32 30 28 26 23 22 21 21 21 21 21 22 22 23 24 24 18 11 12 16 16 14 13 12 13 15 15 14 16 18 20 22 23 24 25
19 18 17 17 17 17 16 16 16 16 16 15 12 11 11 11 12 14 14 15 17 18 19 20 21 21 22 23 24 24 25 26 26 26 27 26 26 29 30 28 28 28 30 32 36 40 41 39 37 37 36 34 33 32 30 28 25 23 21 20 21 21 22 21 22 22 18 15 15 15 13 12 12 11 11 12 11 10 11 13 15 17 19 20 22
Wind_Direction
196 224 225 209 246 265 288 291 303 308 311 329 345 332 313 304 298 294 290 289 288 286 278 274 267 263 268 272 281 292 290 275 272 278 276 272 272 273 276 280 283 285 286 287 288 289 291 296 303 306 309 313 316 316 316 321 326 326 325 323 319 311 301 296 291 289 268 231 210 199 207 211 203 198 198 185 168 162 151 149 153 148 144 143 143
197 217 218 221 228 235 251 259 266 277 294 298 299 285 277 277 270 271 273 273 281 281 273 267 261 261 265 266 268 273 274 269 269 272 274 273 273 277 280 285 288 285 284 284 284 286 287 291 298 302 303 306 310 312 313 318 323 323 322 320 320 318 305 297 286 276 264 240 219 209 211 210 201 197 201 191 172 167 160 159 165 161 155 153 150
194 210 220 236 233 229 242 259 264 267 277 273 279 284 280 278 273 276 278 280 288 289 283 275 269 267 269 270 267 266 267 272 276 274 275 274 274 277 279 286 290 287 285 285 283 283 284 289 294 298 298 299 304 308 310 313 317 319 319 317 320 321 306 295 285 271 260 246 226 216 214 206 198 197 202 192 174 171 168 166 172 171 167 163 158
198 215 228 240 240 243 253 266 279 278 280 273 285 296 289 285 284 289 290 293 297 296 292 283 281 278 273 271 267 267 270 273 277 275 276 276 276 277 278 284 287 286 285 286 286 284 284 288 291 293 292 293 298 304 305 306 311 313 316 315 316 319 311 296 281 269 260 247 230 220 213 205 198 197 202 195 179 175 172 171 173 176 174 168 162
209 223 231 237 242 261 271 278 292 282 283 287 292 294 288 290 294 299 301 301 301 298 297 293 295 297 287 278 270 270 272 277 280 278 278 277 277 278 281 286 286 289 289 287 290 288 285 285 286 288 286 287 291 296 296 297 303 307 311 314 314 316 315 303 279 265 262 246 230 221 213 206 202 199 203 200 184 178 179 177 178 182 178 169 166
225 231 235 242 246 268 273 276 282 275 285 289 289 296 293 298 301 307 313 311 311 307 304 304 305 304 299 293 284 279 279 283 286 282 282 282 283 284 286 288 289 294 295 295 295 293 290 284 281 283 281 281 285 288 287 290 298 300 304 309 312 314 313 309 284 260 260 247 228 221 214 207 205 202 204 205 189 180 182 182 185 188 182 173 171
240 237 236 245 250 263 265 262 265 266 284 290 309 318 309 315 316 320 324 319 319 315 307 304 306 308 305 304 298 290 285 286 288 285 283 283 285 288 289 291 293 296 297 299 300 298 296 289 282 281 279 278 280 281 281 286 291 290 295 301 308 312 310 311 290 259 253 245 229 221 218 209 207 206 205 207 195 182 181 183 191 195 186 179 177
239 241 240 251 250 252 257 258 262 266 284 326 346 331 319 326 326 326 325 321 320 316 310 305 305 307 306 306 307 304 302 301 299 294 288 284 285 288 290 292 295 296 296 298 301 301 299 291 284 280 279 279 276 276 276 281 285 282 290 294 299 305 306 309 296 265 251 242 234 225 224 216 210 208 207 209 199 187 182 179 188 199 188 182 185
211 221 222 247 254 245 248 256 263 263 295 358 354 338 330 330 325 322 322 324 326 323 322 315 311 312 313 313 313 313 317 319 316 309 301 296 294 295 298 298 297 297 297 296 299 303 302 294 288 282 282 281 277 273 271 276 279 276 281 286 290 297 300 303 295 271 254 242 238 230 229 225 214 209 208 210 203 191 186 178 181 191 184 180 187
201 220 213 236 251 237 236 252 310 303 337 353 343 334 328 323 319 317 318 321 325 326 325 322 319 319 319 318 316 317 322 323 322 317 311 309 309 309 312 313 309 306 304 300 299 303 304 300 296 290 288 288 281 274 271 274 277 274 271 272 282 289 293 296 292 277 258 243 239 232 229 230 221 211 209 211 207 197 190 183 181 188 185 181 184
193 220 221 234 247 246 255 320 355 341 346 340 324 324 314 312 313 312 316 321 323 325 325 325 325 325 322 318 318 323 328 328 329 330 325 319 322 328 329 326 322 319 317 311 305 302 302 301 299 297 294 293 288 280 277 278 277 275 269 263 271 279 284 289 290 285 264 243 239 235 230 231 225 216 214 213 211 205 198 190 186 192 195 188 184
176 191 220 244 249 269 298 332 344 326 324 317 313 312 301 303 308 307 313 319 320 321 327 328 327 326 320 316 320 326 330 329 325 330 334 331 330 332 333 330 327 327 326 322 315 308 304 301 302 302 299 296 294 288 282 279 277 274 272 265 262 269 277 282 285 288 278 248 234 235 233 230 227 222 220 217 213 210 205 197 191 194 202 200 193
162 173 202 241 244 249 255 230 210 248 279 290 291 292 295 299 301 305 312 317 319 323 329 328 325 324 322 321 326 333 334 326 319 326 328 327 327 327 331 333 332 332 330 327 322 319 314 308 304 304 302 298 294 291 287 281 276 274 274 271 261 263 270 273 272 275 282 265 238 232 234 231 225 222 222 219 214 213 210 203 198 197 203 208 202
166 177 192 225 234 235 233 220 210 247 257 262 278 287 295 298 298 303 305 307 313 317 320 321 322 324 325 328 333 341 348 341 345 342 325 323 328 331 333 333 332 331 328 326 325 324 320 314 309 305 303 299 293 290 288 283 280 277 277 275 268 261 260 263 263 259 270 275 251 234 232 233 228 222 221 219 215 216 214 208 205 202 202 211 209
166 179 199 217 230 244 248 270 300 292 274 264 273 277 281 290 298 303 303 303 303 302 309 316 320 322 325 330 334 340 349 341 328 333 332 332 338 334 330 330 330 328 324 324 324 323 320 315 312 309 305 301 296 291 287 284 283 282 279 276 272 265 260 261 261 257 263 269 257 241 232 231 231 225 221 221 219 218 217 214 211 206 204 211 212
166 174 197 216 227 247 277 289 289 292 291 282 276 277 286 294 297 300 305 306 300 296 302 305 310 322 329 331 333 334 338 328 323 330 340 336 333 332 330 329 327 325 321 319 321 324 321 315 312 310 307 304 301 297 292 289 286 282 278 275 273 269 265 263 259 257 261 258 251 245 235 230 232 229 225 225 224 220 218 217 216 210 205 210 213
175 186 201 219 223 235 264 267 271 271 271 279 280 280 283 283 280 287 296 299 299 296 295 294 297 315 330 334 335 327 326 326 325 326 325 323 330 333 332 331 330 329 323 316 317 320 320 317 314 312 311 310 307 302 297 294 290 285 280 276 274 272 268 265 261 257 256 254 249 244 237 235 233 230 228 228 230 227 221 218 218 215 210 209 212
181 194 201 210 222 249 258 251 253 252 253 261 264 264 267 270 270 274 281 287 292 294 295 296 298 298 299 315 324 321 324 329 327 322 317 320 327 327 328 331 333 333 328 322 318 316 317 317 315 314 314 313 309 303 297 294 292 288 283 279 275 273 270 266 263 257 250 251 252 243 235 239 239 233 229 229 232 232 226 220 217 217 215 210 211
187 197 205 216 237 254 253 246 242 240 243 249 248 248 253 261 266 269 274 278 285 294 298 300 302 298 290 289 294 299 310 322 326 323 320 319 318 319 323 325 326 328 328 327 323 318 317 317 315 312 311 310 307 302 298 295 293 289 286 283 279 274 271 267 263 259 252 247 247 242 232 232 237 237 232 230 231 233 230 223 217 217 218 213 210
200 210 225 240 246 249 249 248 245 240 239 245 249 251 251 256 263 267 271 276 283 292 297 300 302 302 302 300 296 294 296 307 318 322 322 319 315 315 316 315 315 319 323 324 321 319 318 316 316 313 309 307 304 302 300 298 295 291 287 285 283 278 273 269 265 262 257 248 241 238 232 229 233 235 234 231 229 232 233 227 219 217 219 217 211
202 217 232 242 244 248 251 254 255 250 244 244 247 250 253 258 265 268 270 274 279 284 290 295 298 300 302 301 301 303 303 304 310 317 320 320 316 315 316 315 312 311 316 319 319 318 314 311 311 309 307 305 304 304 302 300 299 297 293 288 284 281 277 273 269 265 261 254 246 239 229 227 232 233 232 232 228 230 232 229 225 220 219 219 213
202 217 230 240 247 251 255 258 257 251 247 244 244 248 252 259 267 271 272 271 271 273 278 283 286 289 292 296 302 307 311 314 317 318 317 316 314 313 316 319 316 312 314 316 314 313 310 309 307 304 303 304 306 305 301 300 300 300 299 293 286 283 280 277 272 267 261 255 251 246 230 224 232 232 231 234 231 228 229 229 227 224 222 221 215
223 233 243 251 256 256 254 253 250 247 250 252 253 257 259 261 267 270 270 267 264 263 266 270 275 279 282 288 295 301 307 312 314 315 315 313 313 312 313 317 314 310 312 311 307 307 308 311 310 305 305 307 307 305 301 299 300 302 302 297 291 284 281 280 276 272 267 258 254 252 235 222 229 231 229 232 232 228 227 227 226 224 224 221 216
238 248 257 260 259 253 248 248 249 252 262 269 271 274 274 269 269 272 273 270 267 268 271 274 278 282 284 285 287 290 292 295 300 305 308 308 311 312 312 314 312 307 306 306 305 305 308 313 312 307 309 309 308 305 300 292 290 298 300 296 295 290 285 282 280 278 274 267 260 258 246 228 227 230 229 229 231 229 225 226 225 222 222 220 215
240 252 264 268 254 244 243 249 258 263 270 275 277 283 282 272 270 273 274 276 278 282 286 286 287 288 290 290 290 290 289 289 291 295 299 303 307 310 311 315 315 310 307 307 307 306 309 316 318 313 310 310 311 310 306 296 289 294 296 292 293 293 290 287 284 280 276 272 265 260 256 242 230 231 231 228 229 231 229 225 222 220 221 218 212
243 257 275 279 257 241 236 240 247 258 268 272 275 284 280 270 270 272 276 285 288 290 292 291 291 290 290 292 293 295 293 290 290 295 300 304 309 313 314 314 314 313 312 310 309 311 313 316 320 320 314 312 315 315 314 311 304 303 301 295 292 291 291 289 286 282 277 273 267 262 261 254 238 232 232 229 228 232 233 228 220 219 220 218 211
249 266 274 265 253 226 214 222 225 231 245 259 267 275 272 269 272 275 282 290 290 291 294 295 297 297 295 296 297 300 298 292 289 295 305 310 314 319 318 318 319 319 318 313 310 315 321 320 320 325 323 316 315 314 312 312 311 311 303 293 290 290 290 289 287 285 278 272 269 263 261 258 246 236 232 230 229 230 231 230 223 219 220 218 213
246 259 259 249 231 205 204 213 200 203 221 245 263 267 269 270 274 280 287 295 298 303 309 312 316 317 317 317 318 321 321 313 299 293 298 305 311 316 318 322 327 325 322 319 314 312 319 324 324 326 328 323 316 312 309 308 310 310 302 293 291 289 288 289 287 283 280 275 270 266 263 257 247 240 234 229 228 229 230 231 226 219 219 219 215
237 243 243 232 206 193 195 182 170 189 203 202 253 273 288 294 299 310 316 320 322 325 331 335 337 340 343 346 348 350 352 353 341 320 307 304 307 313 315 318 324 325 324 324 319 313 313 317 320 321 325 328 326 320 315 311 306 304 302 298 294 291 286 284 282 278 277 274 271 270 269 262 251 245 240 231 228 229 231 232 228 219 216 217 216
222 225 221 204 182 182 156 118 117 127 135 131 126 339 353 344 340 342 340 339 338 337 342 347 351 355 356 357 357 356 356 356 354 347 335 325 322 321 320 319 321 325 328 325 319 314 312 311 312 315 320 325 328 326 321 315 307 304 304 301 297 296 290 281 277 277 274 272 270 269 270 268 259 253 248 237 229 228 230 232 231 223 215 215 216
204 202 193 177 160 137 112 110 127 142 125 100 46 23 16 357 350 353 355 357 351 348 354 4 8 5 1 357 353 351 349 347 346 345 341 337 334 331 329 327 323 324 330 329 321 316 316 316 310 308 314 319 320 319 317 314 311 310 309 304 298 296 292 283 278 276 273 269 267 267 267 266 262 256 253 246 235 228 228 231 232 229 221 217 216
188 184 179 167 135 124 135 149 144 95 73 58 35 23 16 9 7 5 9 5 354 357 9 16 16 10 3 356 347 344 349 352 352 351 348 345 342 338 335 331 328 330 336 339 332 324 321 322 316 309 311 315 316 318 317 313 311 310 307 304 300 295 291 288 284 280 277 274 271 269 268 266 262 257 253 250 243 234 230 229 231 232 228 222 217
173 162 140 119 120 145 158 129 88 75 71 59 40 23 13 14 14 2 0 357 354 8 22 20 16 13 6 357 349 350 360 2 359 357 357 354 352 348 344 342 340 341 345 344 339 333 326 322 323 318 314 317 319 324 325 317 309 305 304 302 297 292 290 290 286 281 280 280 277 275 273 268 264 260 255 252 251 242 232 228 229 232 230 225 219
130 113 108 115 136 152 120 96 92 89 80 67 48 26 11 9 4 354 1 10 12 21 30 24 19 17 10 2 354 354 1 1 356 356 358 356 356 354 352 353 350 347 350 348 341 338 331 324 325 324 320 321 323 325 323 318 310 307 307 303 294 288 288 290 289 286 283 281 280 278 278 275 268 264 259 255 255 251 240 231 228 229 229 227 221
113 107 115 136 151 123 105 106 104 90 75 63 47 24 13 8 4 9 21 31 33 32 30 29 30 24 15 5 353 350 356 357 353 354 356 355 356 355 353 354 353 351 354 350 342 338 334 330 331 332 329 324 322 322 313 306 302 299 297 295 291 285 280 278 278 280 279 278 278 278 279 278 273 269 266 262 260 259 250 237 230 228 228 228 225
111 119 139 152 136 117 116 116 103 88 75 59 42 25 19 17 21 31 37 43 47 38 27 32 41 35 22 6 349 347 355 356 351 350 351 351 352 353 352 352 354 355 356 350 344 342 340 337 336 337 336 327 322 322 312 300 293 289 287 285 284 281 277 273 271 271 271 271 273 274 274 274 273 271 270 268 265 264 258 245 235 230 228 228 226
124 144 160 144 128 128 126 120 108 96 79 59 46 38 32 29 35 46 48 47 47 35 25 33 42 35 21 3 348 349 354 354 351 349 348 347 348 347 349 352 356 358 356 348 346 347 345 343 342 341 338 332 324 321 316 310 303 295 290 286 284 282 279 275 272 271 272 273 273 272 270 268 268 267 268 270 268 265 263 255 241 231 228 228 227
139 159 161 134 132 136 132 125 113 96 80 60 50 48 45 42 42 49 52 46 38 34 33 37 36 21 8 358 353 356 358 357 354 351 348 347 347 347 348 352 355 356 354 349 347 346 345 346 348 345 342 340 333 326 324 324 321 313 305 296 287 284 282 277 271 269 272 277 276 276 275 270 266 266 268 272 271 264 260 259 250 236 228 228 228
152 160 148 135 137 139 134 127 113 95 79 64 60 57 55 52 46 46 46 36 34 41 43 39 33 24 15 11 10 10 9 7 4 0 356 353 350 350 351 352 354 357 356 352 348 346 345 346 348 347 345 344 340 333 329 328 327 325 320 311 298 289 286 283 277 272 271 273 274 276 277 272 265 265 270 273 272 266 259 259 257 245 231 227 227
168 164 141 136 139 138 132 126 111 94 82 76 73 67 63 54 46 45 38 28 35 46 46 39 35 33 31 29 28 24 21 19 17 12 7 3 357 353 351 349 353 1 1 355 350 347 346 346 346 346 344 342 340 336 332 331 330 328 327 325 317 307 299 294 290 286 281 276 275 273 272 271 266 265 271 272 268 264 258 256 258 252 237 227 226
178 166 137 135 138 134 129 120 106 99 91 86 77 69 62 50 43 39 27 29 46 55 51 45 43 43 42 42 40 36 33 31 28 23 18 11 3 358 356 352 352 358 358 356 353 351 349 348 347 345 342 340 339 337 335 335 333 328 326 327 324 321 317 308 299 298 296 290 283 274 266 267 269 267 267 267 264 263 260 254 253 252 241 229 226
173 152 132 134 135 129 123 113 104 98 90 82 74 66 59 50 44 38 37 53 65 61 53 51 51 49 48 47 45 42 41 38 35 33 30 25 18 9 4 1 1 2 359 356 354 351 348 347 345 344 342 338 338 338 334 331 328 325 325 326 325 326 327 321 308 301 304 306 298 282 264 259 266 269 269 267 265 266 265 258 249 247 242 232 226
153 138 133 134 131 122 116 108 101 95 88 83 75 67 61 55 51 54 65 74 69 58 54 54 53 51 50 49 47 45 43 40 38 37 36 36 33 28 21 14 9 6 2 0 359 355 351 345 342 342 341 338 335 334 331 327 323 322 322 324 326 326 328 328 318 307 310 320 312 296 276 261 262 268 270 271 270 269 270 264 253 246 241 234 228
136 131 128 124 118 112 108 104 100 95 90 86 81 74 63 58 60 67 75 75 66 57 54 53 52 52 52 51 49 46 43 40 38 37 37 38 39 37 35 32 26 16 6 1 359 358 357 351 345 339 336 333 329 326 326 324 320 319 320 320 323 325 324 324 319 313 318 327 320 307 294 277 267 266 265 269 276 276 277 273 262 252 245 238 232
139 129 117 111 108 107 105 103 101 97 94 90 85 75 64 65 72 72 72 71 66 59 55 54 54 54 53 52 49 45 41 38 36 35 35 37 40 40 37 34 32 30 24 16 7 0 358 355 351 344 335 328 323 320 319 317 315 316 318 319 321 322 318 316 315 314 319 325 319 309 300 289 281 276 269 270 278 280 278 278 273 262 253 246 239
137 122 111 108 105 103 102 101 102 102 99 93 86 75 69 76 79 71 66 67 65 60 56 55 55 54 53 52 48 44 40 37 33 32 32 35 37 38 35 31 30 30 28 25 20 12 5 359 356 350 342 332 323 318 315 313 313 315 318 319 320 319 315 312 311 312 317 321 315 306 300 294 293 290 279 275 279 281 277 275 272 268 261 255 248
126 116 112 108 103 100 97 97 104 106 103 98 92 83 78 80 78 68 60 58 57 58 57 55 55 55 53 50 47 43 42 38 33 30 30 32 34 35 34 32 30 28 26 24 23 20 16 11 5 358 351 343 334 326 321 317 314 314 316 317 317 316 313 312 310 311 315 319 317 314 309 303 298 293 286 280 278 277 276 273 272 270 265 259 253
120 115 112 107 101 97 93 94 103 109 109 107 104 95 88 84 82 78 69 57 51 53 55 55 56 56 52 49 45 43 42 40 34 30 29 30 33 34 33 32 30 27 24 23 22 20 19 19 17 11 4 357 350 342 333 325 321 319 319 319 320 321 321 319 319 317 316 315 318 324 321 314 305 291 280 274 271 272 274 274 275 275 270 264 256
116 112 109 104 99 96 93 93 99 109 115 118 117 106 96 92 92 92 88 76 60 51 53 57 59 57 54 50 45 42 41 39 35 32 30 29 32 33 32 31 30 27 24 22 21 19 18 20 21 20 16 12 8 3 353 343 336 330 329 331 332 332 330 328 328 328 324 320 318 320 319 316 313 298 273 262 262 265 270 274 276 275 274 269 261
117 113 108 104 99 96 95 94 97 104 112 117 116 107 100 99 97 95 94 89 77 64 61 63 61 58 55 52 47 43 41 38 35 33 30 29 31 32 30 29 30 27 24 22 19 17 17 18 21 22 22 20 17 14 8 0 351 342 341 342 339 335 333 331 332 332 331 333 332 326 321 317 317 307 277 257 257 262 267 272 274 273 274 271 262
116 112 109 106 101 98 96 96 98 100 103 105 104 101 103 105 100 94 92 88 81 73 68 65 62 58 55 52 49 45 41 38 36 34 30 29 32 31 27 26 29 28 25 22 19 16 16 18 21 24 25 24 23 21 16 10 2 356 352 349 344 340 337 335 336 337 336 338 344 342 330 320 318 307 279 258 255 266 271 272 274 274 273 268 260